Weather History for KJWG - June, 2013

Change the Weather History Date:

Thursday, June 13, 2013

  Actual Average Record
Temperature  
Mean Temperature 84 °F -  
Max Temperature 96 °F 89 °F 100 °F (2011)
Min Temperature 71 °F 66 °F 52 °F (1985)
Cooling Degree Days 18    
Growing Degree Days 34 (Base 50)    
Moisture  
Dew Point 69 °F    
Average Humidity 63    
Maximum Humidity 89    
Minimum Humidity 38    
Precipitation  
Precipitation 0.00 in - - ()
Sea Level Pressure  
Sea Level Pressure 30.00 in    
Wind  
Wind Speed 0 mph (North)    
Max Wind Speed 0 mph    
Max Gust Speed -    
Visibility 10 miles    
Events      
Averages and records for this station are not official NWS values.
T = Trace of Precipitation, MM = Missing Value Source: NWS Daily Summary

Daily Weather History Graph

Daily Weather History Graph

Search for Another Location

Airport or City:

Trip Planner

Search our weather history database for the weather conditions in past years. The results will help you decide how hot, cold, wet, or windy it might be!

Date:

Astronomy

Jun. 13, 2013 Rise Set
Actual Time 6:16 AM CDT 8:51 PM CDT
Civil Twilight 5:46 AM CDT 9:21 PM CDT
Nautical Twilight 5:09 AM CDT 9:58 PM CDT
Astronomical Twilight 4:27 AM CDT 10:40 PM CDT
Moon 10:47 AM CDT (6/13) No Moon Set
Length of Visible Light 15h 34m
Length of Day
14h 34m
Waxing Crescent, 22% of the Moon is Illuminated
Jun 13
Waxing Crescent
Jun 16
First Quarter
Jun 23
Full
Jun 29
Last Quarter
Jul 8
New

Hourly Weather History & Observations

Time (CDT) Temp. Heat Index Dew Point Humidity Pressure Visibility Wind Dir Wind Speed Gust Speed Precip Events Conditions
12:15 AM 79.9 °F - 69.8 °F 71% 29.99 in 10.0 mi North - - N/A   Clear
12:35 AM 79.7 °F - 70.0 °F 72% 29.99 in 10.0 mi North - - N/A   Clear
12:55 AM 79.2 °F - 70.0 °F 73% 29.99 in 10.0 mi North - - N/A   Clear
1:15 AM 79.0 °F - 70.0 °F 74% 29.99 in 10.0 mi North - - N/A   Clear
1:35 AM 78.8 °F - 69.8 °F 74% 29.99 in 10.0 mi North - - N/A   Clear
1:55 AM 78.1 °F - 69.6 °F 75% 29.99 in 10.0 mi North - - N/A   Clear
2:15 AM 77.9 °F - 69.6 °F 76% 29.99 in 10.0 mi North - - N/A   Clear
2:35 AM 77.0 °F - 69.4 °F 77% 29.99 in 10.0 mi North - - N/A   Clear
2:55 AM 76.1 °F - 69.4 °F 80% 29.99 in 10.0 mi North - - N/A   Clear
3:15 AM 75.4 °F - 69.1 °F 81% 29.99 in 10.0 mi North - - N/A   Clear
3:35 AM 75.4 °F - 68.9 °F 80% 29.99 in 10.0 mi North - - N/A   Clear
3:55 AM 75.4 °F - 68.9 °F 80% 29.99 in 10.0 mi North - - N/A   Clear
4:15 AM 75.0 °F - 68.4 °F 80% 29.99 in 10.0 mi North - - N/A   Clear
4:35 AM 74.7 °F - 68.2 °F 80% 29.99 in 10.0 mi North - - N/A   Clear
4:55 AM 74.3 °F - 68.0 °F 81% 29.99 in 10.0 mi North - - N/A   Clear
5:15 AM 73.2 °F - 68.0 °F 84% 30.00 in 10.0 mi North - - N/A   Clear
5:35 AM 73.9 °F - 68.0 °F 82% 30.00 in 10.0 mi North - - N/A   Clear
5:55 AM 74.7 °F - 68.0 °F 80% 30.01 in 10.0 mi North - - N/A   Clear
6:15 AM 71.2 °F - 68.0 °F 89% 30.03 in 10.0 mi North - - N/A   Clear
6:35 AM 74.8 °F - 68.0 °F 79% 30.04 in 10.0 mi North - - N/A   Clear
6:55 AM 73.2 °F - 68.0 °F 84% 30.04 in 10.0 mi North - - N/A   Clear
7:15 AM 73.8 °F - 68.4 °F 83% 30.04 in 10.0 mi North - - N/A   Clear
7:35 AM 75.7 °F - 69.8 °F 82% 30.06 in 10.0 mi Calm Calm - N/A   Clear
7:55 AM 77.5 °F - 69.3 °F 76% 30.06 in 10.0 mi North - - N/A   Clear
8:15 AM 78.8 °F - 69.6 °F 73% 30.06 in 10.0 mi Calm Calm - N/A   Clear
8:35 AM 76.5 °F - 69.8 °F 80% 30.06 in 10.0 mi North - - N/A   Clear
8:55 AM 77.0 °F - 69.8 °F 78% 30.07 in 10.0 mi North - - N/A   Clear
9:15 AM 78.4 °F - 70.0 °F 75% 30.07 in 10.0 mi North - - N/A   Clear
9:35 AM 80.1 °F 83.2 °F 70.0 °F 71% 30.08 in 10.0 mi North - - N/A   Clear
9:55 AM 81.7 °F 85.4 °F 70.0 °F 68% 30.07 in 10.0 mi Calm Calm - N/A   Clear
10:15 AM 82.8 °F 86.9 °F 70.5 °F 66% 30.07 in 10.0 mi Calm Calm - N/A   Clear
10:35 AM 83.7 °F 87.5 °F 69.3 °F 62% 30.06 in 10.0 mi Calm Calm - N/A   Clear
10:55 AM 85.6 °F 90.1 °F 70.0 °F 59% 30.07 in 10.0 mi Calm Calm - N/A   Clear
11:15 AM 86.2 °F 90.7 °F 69.8 °F 58% 30.06 in 10.0 mi Calm Calm - N/A   Clear
11:35 AM 87.1 °F 92.0 °F 70.0 °F 57% 30.06 in 10.0 mi Calm Calm - N/A   Clear
11:55 AM 89.2 °F 94.5 °F 70.2 °F 53% 30.06 in 10.0 mi Calm Calm - N/A   Clear
12:15 PM 89.2 °F 94.5 °F 70.3 °F 53% 30.06 in 10.0 mi Calm Calm - N/A   Clear
12:35 PM 90.0 °F 95.9 °F 70.9 °F 53% 30.05 in 10.0 mi Calm Calm - N/A   Clear
12:55 PM 92.3 °F 98.6 °F 70.9 °F 49% 30.04 in 10.0 mi Calm Calm - N/A   Clear
1:15 PM 91.8 °F 98.6 °F 71.1 °F 51% 30.04 in 10.0 mi Calm Calm - N/A   Clear
1:35 PM 93.4 °F 99.7 °F 70.2 °F 47% 30.03 in 10.0 mi Calm Calm - N/A   Clear
1:55 PM 93.9 °F 100.3 °F 70.3 °F 46% 30.02 in 10.0 mi Calm Calm - N/A   Clear
2:15 PM 95.0 °F 101.3 °F 69.8 °F 44% 30.02 in 10.0 mi Calm Calm - N/A   Clear
2:35 PM 95.2 °F 100.5 °F 68.7 °F 42% 30.01 in 10.0 mi Calm Calm - N/A   Clear
2:55 PM 95.5 °F 100.0 °F 67.6 °F 40% 30.00 in 10.0 mi Calm Calm - N/A   Clear
3:15 PM 95.7 °F 100.3 °F 68.2 °F 40% 29.99 in 10.0 mi Calm Calm - N/A   Clear
3:35 PM 96.3 °F 100.8 °F 67.8 °F 39% 29.99 in 10.0 mi Calm Calm - N/A   Clear
3:55 PM 96.1 °F 101.0 °F 67.8 °F 40% 29.98 in 10.0 mi Calm Calm - N/A   Clear
4:15 PM 96.4 °F 101.1 °F 67.6 °F 39% 29.97 in 10.0 mi Calm Calm - N/A   Clear
4:35 PM 96.4 °F 100.6 °F 66.9 °F 38% 29.97 in 10.0 mi Calm Calm - N/A   Clear
4:55 PM 96.3 °F 100.8 °F 67.6 °F 39% 29.96 in 10.0 mi Calm Calm - N/A   Clear
5:15 PM 96.1 °F 101.0 °F 68.0 °F 40% 29.96 in 10.0 mi Calm Calm - N/A   Clear
5:35 PM 96.3 °F 102.0 °F 69.1 °F 41% 29.95 in 10.0 mi Calm Calm - N/A   Clear
5:55 PM 95.4 °F 99.1 °F 66.7 °F 39% 29.94 in 10.0 mi Calm Calm - N/A   Clear
6:15 PM 95.9 °F 100.7 °F 67.8 °F 40% 29.94 in 10.0 mi Calm Calm - N/A   Clear
6:35 PM 95.4 °F 99.7 °F 67.6 °F 40% 29.92 in 10.0 mi Calm Calm - N/A   Clear
6:55 PM 94.8 °F 99.8 °F 68.2 °F 42% 29.92 in 10.0 mi Calm Calm - N/A   Clear
7:15 PM 94.1 °F 98.9 °F 68.4 °F 43% 29.92 in 10.0 mi North - - N/A   Clear
7:35 PM 92.8 °F 97.6 °F 68.9 °F 45% 29.92 in 10.0 mi North - - N/A   Clear
7:55 PM 92.1 °F 96.7 °F 68.4 °F 46% 29.93 in 10.0 mi North - - N/A   Clear
8:15 PM 90.5 °F 95.5 °F 69.6 °F 50% 29.94 in 10.0 mi North - - N/A   Clear
8:35 PM 88.7 °F 93.5 °F 69.8 °F 53% 29.94 in 10.0 mi North - - N/A   Clear
8:55 PM 87.8 °F 92.2 °F 69.3 °F 54% 29.94 in 10.0 mi North - - N/A   Clear
9:15 PM 86.0 °F 90.4 °F 69.8 °F 58% 29.95 in 10.0 mi North - - N/A   Clear
9:35 PM 84.6 °F 88.8 °F 69.8 °F 61% 29.95 in 10.0 mi North - - N/A   Clear
9:55 PM 83.5 °F 87.7 °F 70.0 °F 64% 29.96 in 10.0 mi North - - N/A   Clear
10:15 PM 82.8 °F 86.9 °F 70.3 °F 66% 29.97 in 10.0 mi North - - N/A   Clear
10:35 PM 81.9 °F 85.8 °F 70.5 °F 68% 29.98 in 10.0 mi North - - N/A   Clear
10:55 PM 80.6 °F 84.2 °F 70.7 °F 72% 29.99 in 10.0 mi North - - N/A   Clear
11:15 PM 80.1 °F 83.6 °F 71.1 °F 74% 30.00 in 10.0 mi North - - N/A   Clear
11:35 PM 79.3 °F - 71.2 °F 76% 29.99 in 10.0 mi North - - N/A   Clear
11:55 PM 78.8 °F - 71.2 °F 78% 29.99 in 10.0 mi North - - N/A   Clear